Regional Weather Roundup
Issued by NWS Little Rock, AR

Home | Current Version | Previous Version | Text Only | Print | Product List | Glossary On
Versions: 1 2 3 4 5 6 7 8 9 10 11 12 13 14 15 16 17 18 19 20 21 22 23 24 25 26 27 28 29 30 31 32 33 34 35 36 37 38 39 40 41 42 43 44 45 46 47 48 49 50
767
ASUS44 KLZK 280205
RWRLZK

WEATHER ROUNDUP FOR ARKANSAS
NATIONAL WEATHER SERVICE LITTLE ROCK AR
900 PM CDT WED JUL 27 2016

NOTE: "FAIR" INDICATES FEW OR NO CLOUDS BELOW 12,000 FEET WITH NO
SIGNIFICANT WEATHER AND/OR OBSTRUCTIONS TO VISIBILITY.

ARZ001-003-010-029-280300-
NORTHWEST ARKANSAS

CITY           SKY/WX    TMP DP  RH WIND       PRES   REMARKS
FAYETTEVILLE   CLOUDY    77  72  84 SE6G16    29.96S
FORT SMITH     CLOUDY    82  72  71 S5        29.93R HX  87
HARRISON       TSTM      75  69  81 SE8       29.96F
BENTONVILLE    CLOUDY    72  66  83 N3        29.97R
ROGERS         CLOUDY    70  69  97 E6        29.97R
SILOAM SPGS    CLOUDY    72  63  73 CALM      29.97R
HIGHFILL       CLOUDY    73  71  93 NE6       29.95S
SPRINGDALE     CLOUDY    72  72 100 W3        29.98S
$$

ARZ004-005-016-280300-
NORTH CENTRAL ARKANSAS

CITY           SKY/WX    TMP DP  RH WIND       PRES   REMARKS
BATESVILLE     CLOUDY    73  72  94 CALM      29.94R
FLIPPIN        CLOUDY    73  70  88 CALM      29.92S
MTN HOME       PTCLDY    73  72  96 W3        29.93F
$$

ARZ040-041-280300-
WEST CENTRAL ARKANSAS

CITY           SKY/WX    TMP DP  RH WIND       PRES   REMARKS
MENA             N/A    N/A N/A N/A MISG        N/A
MOUNT IDA      PTCLDY    77  76  96 CALM      29.94R
$$

ARZ009-017-025-026-028-280300-
NORTHEAST ARKANSAS

CITY           SKY/WX    TMP DP  RH WIND       PRES   REMARKS
CORNING          N/A     77  77 100 N3        29.92S
JONESBORO      LGT RAIN  77  75  93 CALM      29.90R
NEWPORT        CLOUDY    77  77 100 CALM      29.92R
WALNUT RIDGE   CLOUDY    77  73  88 CALM      29.91R
BLYTHEVILLE    CLOUDY    78  78 100 S5        29.92R
$$

ARZ022-023-033-042-044-280300-
CENTRAL ARKANSAS

CITY           SKY/WX    TMP DP  RH WIND       PRES   REMARKS
LITTLE ROCK    MOCLDY    80  73  79 CALM      29.92R
N LITTLE ROCK    N/A     76  74  94 CALM      29.90R
JACKSONVILLE   CLOUDY    76  76 100 CALM      29.92R
SEARCY         CLOUDY    76  75  97 CALM      29.94R
HOT SPRINGS    MOCLDY    78  74  87 CALM      29.95R
RUSSELLVILLE   CLOUDY    79  75  87 CALM      29.93R
$$

ARZ036-280300-
EAST ARKANSAS

CITY           SKY/WX    TMP DP  RH WIND       PRES   REMARKS
WEST MEMPHIS   CLOUDY    76  74  93 N3        29.90R
$$

ARZ050-053-066-070-073-280300-
SOUTHWEST ARKANSAS

CITY           SKY/WX    TMP DP  RH WIND       PRES   REMARKS
ARKADELPHIA    FAIR      76  75  97 CALM      29.94R
CAMDEN         MOCLDY    77  73  88 SW5       29.93R
TEXARKANA      MOCLDY    76  72  87 S7        29.93R
EL DORADO      CLOUDY    77  73  87 SW3       29.93R
DE QUEEN       MOCLDY    76  76 100 CALM      29.93R
$$

ARZ056-057-069-280300-
SOUTHEAST ARKANSAS

CITY           SKY/WX    TMP DP  RH WIND       PRES   REMARKS
PINE BLUFF     CLOUDY    75  73  93 SW5       29.92R
STUTTGART      CLOUDY    75  70  83 W5        29.92R
MONTICELLO     CLOUDY    76  73  91 CALM      29.91F

$$






USA.gov is the U.S. government's official web portal to all federal, state and local government web resources and services.